[[{"header":{"parameterUnit":"m.s-1","parameterCategory":1,"la1":30.2991,"la2":30.254,"lo1":-89.0895,"lo2":-89.0444,"dx":0.0017,"dy":0.0017,"nx":28,"ny":28,"refTime":"2022-12-09T15:00:00:Z","depth":0,"parameterNumber":2,"parameterNumberName":"U-component_of_WINDS"},"data":[0,0,0,0,0,0,0,0,0,0,0,0,0,0,0,0,0,0,0,0,0,0,0,0,0,0,0,0,0,0,0,0,0,0,0,0,0,0,0,0,0,0,0,0,0,0,0,0,0,0,0,0,0,0,0,0,0,0,-0.6856,-0.6856,0,-0.6885,-0.6886,-0.6886,-0.6896,-0.6895,-0.6895,-0.6895,-0.6926,-0.6927,-0.6927,0,0,0,0,0,0,0,0,0,0,0,0,0,-0.6808,-0.6809,-0.6856,-0.6856,-0.6856,-0.6885,-0.6886,-0.6886,-0.6896,-0.6895,-0.6895,-0.6895,-0.6925,-0.6926,-0.6928,0,0,0,0,0,0,0,0,0,0,0,0,0,-0.6832,-0.6809,-0.6856,-0.6865,-0.6866,-0.6885,-0.6886,-0.6886,-0.6896,-0.6895,-0.6895,-0.6895,-0.6925,-0.6926,-0.6928,-0.694,0,0,-0.6932,-0.6933,0,0,0,0,0,0,0,0,-0.6831,-0.6834,-0.6863,-0.6864,-0.6865,-0.6887,-0.688,-0.6904,-0.6896,-0.6884,-0.6895,-0.6895,-0.6913,-0.6915,-0.6921,-0.6942,-0.6943,-0.6932,-0.6933,-0.6934,-0.6934,0,0,0,0,0,0,0,-0.6829,-0.6833,-0.6867,-0.6863,-0.6865,-0.6867,-0.6871,-0.6885,-0.6899,-0.6885,-0.6886,-0.6889,-0.6913,-0.692,-0.6922,-0.6944,-0.6932,-0.6933,-0.6934,-0.6935,-0.6977,-0.6977,0,0,0,0,0,0,-0.6826,-0.6831,-0.6866,-0.6868,-0.6847,-0.6868,-0.6872,-0.688,-0.6899,-0.6902,-0.689,-0.689,-0.6918,-0.692,-0.6923,-0.694,-0.6934,-0.6935,-0.6936,-0.6977,-0.6977,-0.6977,0,0,0,0,0,0,-0.6825,-0.6829,-0.6865,-0.685,-0.6855,-0.6869,-0.6878,-0.6881,-0.6887,-0.6902,-0.6905,-0.6893,-0.6917,-0.6921,-0.6936,-0.6941,-0.6936,-0.6937,-0.6976,-0.6977,-0.6977,-0.6973,0,0,0,0,0,0,-0.6823,-0.6828,-0.6833,-0.685,-0.6856,-0.6878,-0.6879,-0.6881,-0.6889,-0.689,-0.6907,-0.6909,-0.6918,-0.6934,-0.6938,-0.6943,-0.6938,-0.6976,-0.6977,-0.6977,-0.6972,-0.6973,-0.6973,0,0,0,0,0,-0.6822,-0.6831,-0.6833,-0.6838,-0.6862,-0.6878,-0.6881,-0.689,-0.689,-0.6895,-0.6905,-0.6909,-0.694,-0.6936,-0.694,-0.6945,-0.6976,-0.6976,-0.6977,-0.6972,-0.6973,-0.6973,0,0,0,0,0,0,-0.6814,-0.6833,-0.6836,-0.6851,-0.6863,-0.6879,-0.6886,-0.6891,-0.6903,-0.6903,-0.6914,-0.6918,-0.6932,-0.694,-0.6935,-0.6959,-0.6958,-0.6959,-0.6953,-0.6954,-0.6954,-0.6952,-0.6939,0,0,0,0,0,-0.6814,-0.6825,-0.6841,-0.6853,-0.6858,-0.6871,-0.6879,-0.6885,-0.6898,-0.6903,-0.6914,-0.6926,-0.6939,-0.6947,-0.6959,-0.6974,-0.6978,-0.698,-0.698,-0.698,-0.6981,-0.699,-0.6991,-0.6979,-0.6979,-0.6979,0,0,-0.6814,-0.6826,-0.6832,-0.6851,-0.6861,-0.6873,-0.6875,-0.6887,-0.6896,-0.6904,-0.6919,-0.6928,-0.6943,-0.6958,-0.6965,-0.6965,-0.6986,-0.6981,-0.6981,-0.6982,-0.6991,-0.6992,-0.6993,-0.698,-0.698,-0.698,0,0,-0.682,-0.683,-0.6841,-0.6851,-0.6866,-0.6874,-0.6877,-0.6893,-0.6899,-0.6915,-0.6921,-0.6932,-0.6953,-0.6963,-0.6971,-0.6982,-0.6986,-0.6986,-0.6988,-0.6996,-0.6997,-0.6998,-0.7002,-0.7004,-0.6987,-0.6987,-0.6987,0,-0.6818,-0.6836,-0.6846,-0.6858,-0.6866,-0.6874,-0.6885,-0.6895,-0.6913,-0.6919,-0.6919,-0.6946,-0.6956,-0.6974,-0.6977,-0.6983,-0.6987,-0.6984,-0.6996,-0.6997,-0.6998,-0.7002,-0.7004,-0.6987,-0.6987,-0.6987,-0.6987,0,-0.6833,-0.6845,-0.6852,-0.687,-0.6879,-0.6891,-0.6903,-0.6911,-0.6917,-0.6925,-0.6941,-0.6954,-0.6969,-0.6974,-0.698,-0.6993,-0.6992,-0.6994,-0.6994,-0.6999,-0.7003,-0.7005,-0.6987,-0.6987,-0.6987,-0.6987,0,0,-0.6834,-0.6858,-0.686,-0.6868,-0.6886,-0.6896,-0.6908,-0.6923,-0.693,-0.6943,-0.6953,-0.6972,-0.6974,-0.6983,-0.699,-0.6997,-0.7005,-0.6998,-0.6999,-0.6999,-0.7021,-0.702,-0.7021,-0.7008,-0.7009,-0.7009,-0.702,0,-0.6843,-0.6865,-0.6874,-0.6892,-0.6904,-0.6912,-0.6922,-0.6935,-0.6943,-0.6955,-0.6964,-0.6977,-0.6979,-0.6984,-0.6992,-0.7003,-0.701,-0.7002,-0.7019,-0.7019,-0.7014,-0.7023,-0.7022,-0.7032,-0.7022,-0.7022,-0.7022,0,-0.6855,-0.6868,-0.6887,-0.6903,-0.6909,-0.6918,-0.6933,-0.6944,-0.6958,-0.6964,-0.6974,-0.6981,-0.6994,-0.6993,-0.7012,-0.7006,-0.7014,-0.702,-0.7021,-0.7023,-0.7021,-0.7025,-0.7035,-0.7036,-0.7025,-0.7024,-0.7024,0,-0.6855,-0.6877,-0.6891,-0.6898,-0.6917,-0.6924,-0.6932,-0.6946,-0.6955,-0.6968,-0.6974,-0.6989,-0.6996,-0.7008,-0.7018,-0.7016,-0.7037,-0.7036,-0.7042,-0.7042,-0.7046,-0.7045,-0.7056,-0.705,-0.705,-0.705,-0.705,0,-0.6863,-0.6874,-0.6891,-0.69,-0.6913,-0.6924,-0.6936,-0.6946,-0.6958,-0.6969,-0.6977,-0.6987,-0.7001,-0.7013,-0.7021,-0.7036,-0.7039,-0.7044,-0.7047,-0.7044,-0.7043,-0.7049,-0.7048,-0.7051,-0.7051,-0.7051,-0.705,0,-0.6865,-0.6876,-0.6892,-0.691,-0.6914,-0.6923,-0.6938,-0.6947,-0.6956,-0.697,-0.6974,-0.6989,-0.7003,-0.7015,-0.7034,-0.704,-0.7055,-0.7057,-0.705,-0.7051,-0.7057,-0.7056,-0.7072,-0.7075,-0.7067,-0.7067,-0.7067,0,-0.6869,-0.6878,-0.6896,-0.6904,-0.6913,-0.6925,-0.6934,-0.6946,-0.6955,-0.6972,-0.6979,-0.6994,-0.7007,-0.703,-0.7042,-0.7057,-0.706,-0.7064,-0.7062,-0.7059,-0.706,-0.706,-0.7061,-0.7065,-0.7065,-0.7065,-0.7065,0,-0.6876,-0.6881,-0.6894,-0.6909,-0.6919,-0.6931,-0.6944,-0.695,-0.6964,-0.6974,-0.6989,-0.6998,-0.7018,-0.7033,-0.7049,-0.7058,-0.7064,-0.7065,-0.7068,-0.7065,-0.706,-0.7063,-0.7051,-0.7065,-0.7065,-0.7065,-0.7065,-0.7065,-0.6879,-0.6888,-0.6902,-0.6916,-0.6927,-0.6938,-0.6948,-0.6958,-0.6971,-0.6988,-0.6994,-0.7009,-0.7024,-0.7046,-0.7055,-0.7068,-0.7069,-0.7072,-0.7072,-0.7073,-0.7073,-0.7058,-0.7071,-0.7071,-0.7071,-0.7071,-0.7071,0,-0.6887,-0.6897,-0.6909,-0.6926,-0.6938,-0.6942,-0.6956,-0.6965,-0.6978,-0.6991,-0.7004,-0.7021,-0.7036,-0.705,-0.7066,-0.7073,-0.7076,-0.7077,-0.7076,-0.7078,-0.7071,-0.7068,-0.7074,-0.7074,-0.7074,-0.7074,-0.7074,-0.7074,-0.6892,-0.6907,-0.6914,-0.6934,-0.6944,-0.6959,-0.6967,-0.6978,-0.6988,-0.7007,-0.702,-0.7028,-0.7042,-0.7059,-0.7073,-0.7076,-0.7082,-0.7082,-0.7086,-0.7079,-0.7079,-0.7078,-0.7075,-0.7083,-0.7083,-0.7093,-0.7093,-0.7093]},{"header":{"parameterUnit":"m.s-1","parameterCategory":1,"la1":30.2991,"la2":30.254,"lo1":-89.0895,"lo2":-89.0444,"dx":0.0017,"dy":0.0017,"nx":28,"ny":28,"refTime":"2022-12-09T15:00:00:Z","depth":0,"parameterNumber":3,"parameterNumberName":"V-component_of_WINDS"},"data":[0,0,0,0,0,0,0,0,0,0,0,0,0,0,0,0,0,0,0,0,0,0,0,0,0,0,0,0,0,0,0,0,0,0,0,0,0,0,0,0,0,0,0,0,0,0,0,0,0,0,0,0,0,0,0,0,0,0,3.2411,3.2411,0,3.2485,3.2486,3.2487,3.2497,3.2496,3.2495,3.2495,3.2564,3.2567,3.2569,0,0,0,0,0,0,0,0,0,0,0,0,0,3.227,3.2273,3.241,3.2411,3.2412,3.2485,3.2486,3.2487,3.2497,3.2496,3.2495,3.2494,3.2564,3.2567,3.257,0,0,0,0,0,0,0,0,0,0,0,0,0,3.2336,3.2274,3.241,3.2426,3.2428,3.2485,3.2486,3.2487,3.2497,3.2496,3.2495,3.2494,3.2563,3.2566,3.257,3.2614,0,0,3.2581,3.2583,0,0,0,0,0,0,0,0,3.2333,3.2342,3.2423,3.2425,3.2428,3.2481,3.2462,3.2529,3.2497,3.2471,3.2495,3.2493,3.2537,3.2543,3.2559,3.2617,3.262,3.2582,3.2584,3.2586,3.2587,0,0,0,0,0,0,0,3.2328,3.2338,3.244,3.2424,3.2427,3.2427,3.2436,3.2475,3.2508,3.2473,3.2474,3.2483,3.2538,3.2555,3.256,3.2621,3.2582,3.2585,3.2587,3.2589,3.2719,3.272,0,0,0,0,0,0,3.2322,3.2335,3.2437,3.2442,3.2377,3.2431,3.244,3.2465,3.2508,3.2514,3.2484,3.2483,3.2549,3.2556,3.2563,3.2617,3.2586,3.2589,3.2591,3.2718,3.2719,3.2721,0,0,0,0,0,0,3.2319,3.2331,3.2434,3.2389,3.2402,3.2434,3.2462,3.2467,3.2484,3.2516,3.2522,3.2495,3.2549,3.2558,3.2602,3.262,3.2591,3.2594,3.2716,3.2718,3.272,3.2726,0,0,0,0,0,0,3.2314,3.233,3.2348,3.2389,3.2404,3.2474,3.2463,3.2469,3.2491,3.2491,3.2529,3.2534,3.2549,3.2596,3.2605,3.2624,3.2597,3.2715,3.2717,3.2719,3.2724,3.2728,3.2731,0,0,0,0,0,3.2309,3.2345,3.2349,3.2361,3.2428,3.2475,3.2483,3.2501,3.2493,3.251,3.2531,3.2533,3.2617,3.26,3.2611,3.2631,3.2714,3.2717,3.2719,3.2723,3.2727,3.2731,0,0,0,0,0,0,3.2302,3.2351,3.2355,3.2406,3.2437,3.2476,3.2499,3.2505,3.2537,3.2535,3.2554,3.2562,3.2605,3.2623,3.2604,3.2676,3.2664,3.2669,3.2663,3.2668,3.2671,3.2665,3.26,0,0,0,0,0,3.2307,3.2343,3.2382,3.2423,3.2438,3.2466,3.2487,3.2499,3.253,3.2542,3.2566,3.2595,3.2628,3.2649,3.2681,3.2727,3.2735,3.2746,3.275,3.2752,3.2756,3.2782,3.2787,3.273,3.273,3.2729,0,0,3.2317,3.2347,3.2368,3.2422,3.2447,3.2482,3.2477,3.2514,3.2539,3.2547,3.2591,3.2609,3.2642,3.2688,3.2709,3.2704,3.2774,3.2756,3.2758,3.276,3.2785,3.279,3.2795,3.2731,3.2731,3.2731,0,0,3.2351,3.2379,3.2416,3.2442,3.2481,3.2499,3.2508,3.2548,3.2561,3.2606,3.2613,3.2642,3.2698,3.2722,3.2741,3.2786,3.2788,3.2795,3.2812,3.2837,3.2841,3.2845,3.2861,3.2866,3.2799,3.2799,3.2799,0,3.2357,3.2412,3.2434,3.2471,3.2494,3.2506,3.2542,3.2565,3.2612,3.2626,3.2621,3.2692,3.2715,3.2766,3.2777,3.2793,3.2802,3.2791,3.2839,3.2844,3.2848,3.2862,3.2868,3.28,3.28,3.28,3.28,0,3.2417,3.2455,3.248,3.2528,3.2553,3.259,3.2615,3.2639,3.2648,3.2667,3.2711,3.274,3.2778,3.2791,3.2799,3.2843,3.2839,3.2836,3.2824,3.2853,3.2868,3.2874,3.2801,3.2801,3.28,3.28,0,0,3.2449,3.2509,3.2518,3.2539,3.2584,3.2612,3.2649,3.2689,3.2708,3.2739,3.277,3.2818,3.2816,3.2837,3.2849,3.2871,3.2904,3.2865,3.2866,3.2871,3.2953,3.2955,3.2961,3.2906,3.2907,3.2908,3.295,0,3.2488,3.2557,3.2578,3.2634,3.2669,3.268,3.2712,3.2742,3.276,3.2791,3.281,3.2844,3.2839,3.2852,3.2875,3.2895,3.292,3.2892,3.2933,3.2934,3.2924,3.2969,3.297,3.3008,3.2956,3.2957,3.2958,0,3.2543,3.2579,3.264,3.268,3.2695,3.2724,3.2762,3.2792,3.2825,3.2837,3.2862,3.2872,3.2909,3.2896,3.2946,3.2927,3.2944,3.2957,3.2959,3.2962,3.2947,3.2973,3.3021,3.3026,3.2967,3.2966,3.2965,0,3.256,3.2622,3.2667,3.2685,3.2734,3.2753,3.2774,3.2807,3.2829,3.2862,3.2876,3.2912,3.2931,3.2958,3.2976,3.2965,3.3025,3.3013,3.3034,3.3034,3.3045,3.3044,3.3096,3.3058,3.3058,3.3058,3.3058,0,3.2601,3.2638,3.2675,3.2702,3.2743,3.2766,3.2805,3.2826,3.2855,3.2885,3.2897,3.2924,3.2947,3.2978,3.2992,3.3031,3.304,3.3049,3.3052,3.3048,3.3046,3.3059,3.3056,3.3059,3.3059,3.3059,3.3058,0,3.2626,3.2653,3.2702,3.2745,3.2756,3.2784,3.282,3.2846,3.2865,3.2903,3.2913,3.2943,3.2979,3.3001,3.3046,3.3056,3.3099,3.3101,3.3088,3.309,3.3109,3.3107,3.317,3.318,3.3136,3.3136,3.3136,0,3.265,3.2679,3.2726,3.2748,3.277,3.2805,3.2829,3.2852,3.2876,3.2917,3.2938,3.2975,3.3007,3.3064,3.3088,3.3122,3.3125,3.3145,3.313,3.3125,3.3124,3.3122,3.3125,3.3147,3.3147,3.3148,3.3148,0,3.2691,3.2703,3.2738,3.2779,3.2807,3.2839,3.2871,3.2888,3.2916,3.2942,3.2981,3.3005,3.3053,3.3089,3.3126,3.3145,3.3151,3.3153,3.3159,3.3155,3.3146,3.315,3.3094,3.3151,3.3151,3.315,3.315,3.315,3.2716,3.2742,3.2779,3.2818,3.2845,3.2875,3.2902,3.2926,3.2959,3.3001,3.3012,3.3052,3.3084,3.3135,3.3155,3.3185,3.3182,3.3191,3.3194,3.3195,3.3196,3.3142,3.3192,3.3192,3.3192,3.3192,3.3192,0,3.2756,3.2781,3.2817,3.2863,3.2893,3.2899,3.2934,3.2958,3.2994,3.3025,3.3057,3.3101,3.3136,3.3164,3.32,3.3219,3.3223,3.3228,3.3226,3.323,3.3197,3.3188,3.3225,3.3225,3.3225,3.3225,3.3225,3.3225,3.2781,3.2826,3.2842,3.29,3.2924,3.2966,3.2986,3.3013,3.3037,3.3087,3.3118,3.3137,3.3166,3.3205,3.3237,3.3244,3.3257,3.3261,3.3268,3.3236,3.3233,3.3229,3.3221,3.3264,3.3264,3.3299,3.33,3.33]}]]